Miscellaneous Local Product
Issued by NWS Hastings, NE

Home | Current Version | Previous Version | Graphics & Text | Print | Product List | Glossary On
Versions: 1 2 3 4 5 6 7 8 9 10 11 12 13 14 15 16 17 18 19 20 21 22 23 24 25 26 27 28 29 30 31 32 33 34 35 36 37 38 39 40 41 42 43 44 45 46 47 48 49 50
970
AXUS43 KGID 250602
MISGRI

GID CWA HOURLY WEATHER ROUNDUP
NATIONAL WEATHER SERVICE HASTINGS NE
100 AM CDT THU MAY 25 2017

NOTE: "FAIR" INDICATES FEW OR NO CLOUDS BELOW 12,000 FEET WITH NO
SIGNIFICANT WEATHER AND/OR OBSTRUCTIONS TO VISIBILITY.

...SOUTH CENTRAL NEBRASKA...

CITY           SKY/WX    TMP DP  RH WIND       PRES   REMARKS
GRAND ISLAND   CLEAR     54  46  74 S13       29.63F
HASTINGS       CLEAR     54  44  69 S12       29.64F
KEARNEY        CLEAR     54  43  66 S15       29.62F
ORD            CLEAR     53  43  68 SE9       29.58F
YORK           CLEAR     54  45  71 S8        29.65S
AURORA         CLEAR     55  45  69 S9        29.64S
LEXINGTON      CLEAR     55  45  68 SE15      29.59S
HOLDREGE       CLEAR     53  43  71 SE15      29.61S
HEBRON         CLEAR     52  46  79 S6        29.67R

...NEBRASKA PANHANDLE...

CITY           SKY/WX    TMP DP  RH WIND       PRES   REMARKS
CHADRON        CLEAR     60  47  61 W9        29.39R
ALLIANCE       CLEAR     56  47  71 S12       29.44S
SCOTTSBLUFF    CLEAR     58  45  62 NE6       29.44S
SIDNEY         CLOUDY    61  46  57 SW12      29.52F

...WESTERN AND NORTH CENTRAL NEBRASKA...

CITY           SKY/WX    TMP DP  RH WIND       PRES   REMARKS
VALENTINE      PTCLDY    60  39  45 S12       29.46F
AINSWORTH      CLOUDY    55  44  65 S22G28    29.48F
ONEILL         CLEAR     55  41  61 S14       29.57S
BROKEN BOW     CLOUDY    54  44  69 S16G24    29.57F
IMPERIAL       CLEAR     57  44  62 S16       29.52F
NORTH PLATTE   CLEAR     56  43  61 SE15G23   29.54F
MCCOOK         CLEAR     55  45  68 SE12      29.57F

...EASTERN NEBRASKA...

CITY           SKY/WX    TMP DP  RH WIND       PRES   REMARKS
NORFOLK        CLEAR     53  42  66 SE12      29.63R
SO SIOUX CITY  CLEAR     47  45  93 SE8       29.66S
TEKAMAH        CLEAR     50  32  50 S7        29.67R
ALBION         CLEAR     51  43  73 SE9       29.62S
OMAHA EPPLEY   CLEAR     54  44  69 S3        29.67S
OFFUTT AFB     CLEAR     47  46  94 CALM      29.66F
MILLARD        CLEAR     51  49  92 CALM      29.67S
LINCOLN        CLEAR     51  44  77 SE6       29.67F
NEBRASKA CITY  CLEAR     53  43  68 S6        29.68F
BEATRICE       CLEAR     54  46  73 SE5       29.67F
FALLS CITY     CLEAR     51  47  86 SE5       29.68F

...NORTHERN KANSAS...

CITY           SKY/WX    TMP DP  RH WIND       PRES   REMARKS
GOODLAND       CLEAR     56  46  69 S16       29.57F
HILL CITY      CLEAR     54  46  74 S10       29.62F
NORTON         CLEAR     54  41  62 SE12      29.59F
PHILLIPSBURG   CLEAR     52  46  82 SE6       29.63F
SMITH CENTER   PTCLDY    52  45  76 SE12      29.64F
HAYS           CLEAR     53  46  77 SE12      29.64S
RUSSELL        CLEAR     53  45  74 SE15      29.63F
CONCORDIA      CLEAR     48  45  89 S8        29.66F
SALINA         CLEAR     53  46  77 SE7       29.68S
TOPEKA         CLEAR     52  51  97 CALM      29.70S



USA.gov is the U.S. government's official web portal to all federal, state and local government web resources and services.